Location: Dompnac
(44.5644°N, 4.1026°E)
Time: 05:11:47
(UTC+00:00)

NOSS 2-2 (E) - Pass Details

Date: 22 January 2021
Orbit: 462 x 1744 km, 63.3° (Epoch: 05 March)

Event Time Altitude Azimuth Distance (km) Brightness Sun altitude
Rises 18:38:31 0° 329° (NNW) 2,967 7.4 -21.1°
Reaches altitude 10° 18:41:21 10° 350° (N) 2,239 6.4 -21.6°
Enters shadow 18:43:41 17° 18° (NNE) 1,967 5.9 -22.0°
